Flag for Canada Weather past 2 weeks in Dawson Creek, British Columbia, Canada

Now
7 °F

Light snow. Overcast.


Feels Like: -9 °F
Forecast: -6 / 5 °F
Wind: 12 mph from North

Location: Dawson Creek Airport

Current Time: Dec 28, 2014 at 2:41:49 PM

Latest Report: Dec 28, 2014 at 2:00 PM


Visibility: 9 mi

Pressure: 30.84 "Hg

Humidity: 78%

Dew point: 1 °F

Location of Dawson CreekLocation

Historic Weather in Dawson Creek — Graph

°F

Dawson Creek temperature yesterday

Maximum temperature yesterday: 9 °F (at 12:00 AM)
Minimum temperature yesterday: 1 °F (at 4:00 AM)
Average temperature yesterday: 7 °F

Past Weeks' High & Low Weather Summary

 TemperatureHumidityPressure
High36 °F (Dec 13, 1:00 PM)100% (Dec 13, 9:00 PM)30.80 "Hg (Dec 13, 9:00 PM)
Low-9 °F (Dec 16, 12:01 AM)65% (Dec 13, 1:00 PM)29.35 "Hg (Dec 21, 1:00 AM)
Average10 °F88%29.98 "Hg
* Reported Dec 13 1:00 PM — Dec 28 1:00 PM, Dawson Creek, Weather by CustomWeather, © 2014

Note: Actual official high and low records may vary slightly from our data, if they occured in-between our weather recording intervals... More about our weather records

Advertising

Dawson Creek weather history for previous 24 hours

 ConditionsComfort  
Time TempWeatherWind HumidityBarometerVisibility
1:00 PM
Dec 28
7 °FOvercast.17 mph78%30.80 "Hg9 mi
12:00 PM9 °FLight snow. Mostly cloudy.15 mph78%30.77 "Hg9 mi
11:00 AM9 °FLight snow. Overcast.10 mph78%30.73 "Hg9 mi
10:00 AM7 °FOvercast.7 mph85%30.69 "Hg9 mi
9:00 AM7 °FOvercast.6 mph85%30.66 "Hg9 mi
8:00 AM7 °FLight snow. Overcast.6 mph85%30.62 "Hg9 mi
7:00 AM7 °FLight snow. Overcast.3 mph92%30.60 "Hg2 mi
6:02 AM7 °FLight snow. Overcast.6 mph92%30.58 "Hg3 mi
5:00 AM7 °FLight snow. Overcast.7 mph92%30.56 "Hg3 mi
4:00 AM7 °FLight snow. Overcast.9 mph92%30.53 "Hg1 mi
3:45 AM7 °FLight snow. Overcast.9 mph92%30.53 "Hg2 mi
3:00 AM7 °FLight snow. Overcast.9 mph92%30.50 "Hg2 mi
2:57 AM7 °FLight snow. Overcast.10 mph92%30.50 "Hg2 mi
2:00 AM9 °FLight snow. Overcast.9 mph92%30.46 "Hg1 mi
1:00 AM10 °FLight snow. Overcast.12 mph92%30.43 "Hg2 mi
12:53 AM10 °FLight snow. Overcast.10 mph92%30.42 "Hg2 mi
12:00 AM10 °FLight snow. Overcast.6 mph92%30.40 "Hg9 mi
11:00 PM
Dec 27
9 °FLight snow. Overcast.2 mph92%30.37 "Hg9 mi
10:04 PM9 °FLight snow. Low clouds.6 mph92%30.34 "Hg5 mi
9:53 PM9 °FLight snow. Low clouds.2 mph92%30.34 "Hg9 mi
9:04 PM9 °FLight snow. Mostly cloudy.6 mph92%30.31 "Hg3 mi
8:00 PM9 °FLight snow. Low clouds.7 mph92%30.28 "Hg9 mi
7:00 PM9 °FLow clouds.6 mph92%30.23 "Hg9 mi
6:00 PM7 °FLow clouds.6 mph92%30.21 "Hg9 mi
5:00 PM7 °FMore clouds than sun.5 mph85%30.17 "Hg9 mi
4:02 PM5 °FLight snow. Low clouds.5 mph92%30.14 "Hg7 mi
3:00 PM5 °FLow clouds.6 mph92%30.11 "Hg9 mi
2:00 PM7 °FLow clouds.7 mph92%30.07 "Hg9 mi
Weather by CustomWeather, © 2014

See weather overviewHow to use our weather pages